Location: *
(51.8167°N, 12.5000°E)
Time: 15:23:32
(UTC+00:00)

Cosmos 1603 - Pass Details

Date: 16 September 2019
Orbit: 831 x 860 km, 71.0° (Epoch: 20 October)

Event Time Altitude Azimuth Distance (km) Brightness Sun altitude
Rises 20:33:29 0° 330° (NNW) 3,404 8.1 -27.0°
Reaches altitude 10° 20:35:58 10° 334° (NNW) 2,470 7.0 -27.2°
Enters shadow 20:41:29 60° 49° (NE) 969 3.9 -27.8°
